Wetterdaten am Flugplatz MSG Übersee

alte Datensätze gelöscht
140 aktuelle Wetterdateneinträge gefunden

Datum/Uhrzeit   Windrichtung/Grad    Geschw./kmh    Temp./C°    Luftdruck/mbar    Spannung/Volt   
2026-05-02 00:05 S/170 4 10 1027 12,57
2026-05-02 00:15 SO/135 4 10 1027 12,54
2026-05-02 00:25 SO/129 4 10 1027 12,36
2026-05-02 00:35 SO/128 4 9 1027 12,54
2026-05-02 00:46 SO/128 3 9 1027 12,51
2026-05-02 00:56 S/161 3 9 1027 12,51
2026-05-02 01:06 S/172 2 9 1027 12,51
2026-05-02 01:16 S/175 1 9 1027 12,51
2026-05-02 01:26 S/175 2 8 1027 12,51
2026-05-02 01:36 S/175 2 8 1027 12,51
2026-05-02 01:46 S/175 0 8 1027 12,51
2026-05-02 01:56 S/175 1 8 1027 12,51
2026-05-02 02:06 S/175 2 7 1027 12,51
2026-05-02 02:16 S/175 3 7 1027 12,51
2026-05-02 02:26 S/175 3 7 1027 12,49
2026-05-02 02:36 S/175 1 7 1027 12,51
2026-05-02 02:46 S/175 1 6 1027 12,48
2026-05-02 02:56 S/175 1 6 1026 12,48
2026-05-02 03:06 S/175 1 6 1026 12,48
2026-05-02 03:16 S/175 1 6 1026 12,48
2026-05-02 03:27 S/175 0 5 1026 12,48
2026-05-02 03:37 S/175 0 5 1026 12,48
2026-05-02 03:47 S/175 2 5 1026 12,48
2026-05-02 03:57 S/175 1 5 1026 12,48
2026-05-02 04:07 S/175 1 5 1026 12,48
2026-05-02 04:17 S/175 2 4 1026 12,48
2026-05-02 04:27 S/175 2 4 1026 12,14
2026-05-02 04:37 S/175 2 4 1026 12,49
2026-05-02 04:47 S/175 2 4 1026 12,48
2026-05-02 04:57 S/175 0 4 1026 12,48
2026-05-02 05:07 S/175 2 4 1026 12,46
2026-05-02 05:17 S/175 1 3 1025 12,46
2026-05-02 05:27 S/175 1 3 1026 12,48
2026-05-02 05:37 S/175 1 3 1026 12,48
2026-05-02 05:47 S/175 1 3 1025 12,46
2026-05-02 05:57 S/175 3 3 1025 12,48
2026-05-02 06:07 S/175 3 3 1026 12,49
2026-05-02 06:17 S/175 4 2 1026 12,49
2026-05-02 06:28 S/175 3 3 1026 12,13
2026-05-02 06:38 S/175 3 3 1026 12,49
2026-05-02 06:48 S/175 3 3 1026 12,48
2026-05-02 06:58 S/175 2 3 1026 12,48
2026-05-02 07:08 S/175 2 3 1026 12,49
2026-05-02 07:18 S/175 5 4 1026 12,52
2026-05-02 07:28 O/79 8 5 1026 12,54
2026-05-02 07:38 O/101 6 6 1026 12,57
2026-05-02 07:48 SO/128 9 7 1026 12,57
2026-05-02 07:58 SO/136 7 9 1026 12,58
2026-05-02 08:08 SO/123 8 10 1026 12,61
2026-05-02 08:18 O/92 5 11 1026 12,61
2026-05-02 08:28 SO/142 6 13 1026 12,54
2026-05-02 08:38 SO/151 4 14 1026 12,51
2026-05-02 08:49 O/88 9 15 1026 12,49
2026-05-02 08:59 O/69 8 16 1026 12,51
2026-05-02 09:09 SO/115 6 17 1026 12,51
2026-05-02 09:19 SO/135 6 18 1026 12,57
2026-05-02 09:29 O/106 6 19 1026 12,42
2026-05-02 09:39 SO/127 4 20 1026 12,48
2026-05-02 09:49 O/82 7 21 1026 12,52
2026-05-02 09:59 N/354 12 22 1026 12,58
2026-05-02 10:09 NW/331 13 22 1026 12,58
2026-05-02 10:19 N/354 11 23 1026 12,61
2026-05-02 10:29 N/355 12 23 1026 12,62
2026-05-02 10:39 N/352 13 24 1026 12,32
2026-05-02 10:50 N/350 13 24 1026 12,48
2026-05-02 11:00 N/5 10 24 1026 12,51
2026-05-02 11:10 N/11 12 24 1026 12,57
2026-05-02 11:20 N/8 12 25 1026 12,58
2026-05-02 11:30 N/4 13 25 1025 12,62
2026-05-02 11:40 N/360 15 25 1025 12,64
2026-05-02 11:50 N/358 16 25 1025 12,67
2026-05-02 12:00 N/344 17 25 1025 12,67
2026-05-02 12:10 N/338 15 25 1025 12,70
2026-05-02 12:20 N/5 15 25 1025 12,23
2026-05-02 12:30 N/345 14 25 1025 12,42
2026-05-02 12:40 N/350 11 25 1025 12,48
2026-05-02 12:50 N/346 12 25 1025 12,52
2026-05-02 13:01 N/1 10 25 1025 12,55
2026-05-02 13:11 NO/36 8 26 1025 12,57
2026-05-02 13:21 N/19 7 26 1025 12,61
2026-05-02 13:31 NO/42 9 26 1024 12,64
2026-05-02 13:41 NO/36 11 26 1024 12,67
2026-05-02 13:51 NO/42 11 26 1024 12,76
2026-05-02 14:01 NO/45 10 26 1024 12,45
2026-05-02 14:11 NO/35 11 27 1024 12,74
2026-05-02 14:21 NO/34 10 27 1024 12,90
2026-05-02 14:31 N/19 9 27 1024 12,95
2026-05-02 14:41 N/17 8 27 1023 12,99
2026-05-02 14:51 N/21 10 27 1023 12,95
2026-05-02 15:01 NO/30 10 27 1023 12,96
2026-05-02 15:11 NO/45 10 27 1023 12,98
2026-05-02 15:22 NO/48 10 27 1023 12,99
2026-05-02 15:32 N/352 5 27 1023 13,01
2026-05-02 15:42 N/359 9 27 1023 13,04
2026-05-02 15:52 N/343 14 27 1023 13,04
2026-05-02 16:02 N/3 9 27 1022 12,64
2026-05-02 16:12 N/344 11 27 1022 12,77
2026-05-02 16:22 N/12 11 27 1022 12,80
2026-05-02 16:32 N/9 10 27 1022 12,82
2026-05-02 16:42 N/15 13 27 1022 12,86
2026-05-02 16:52 N/8 12 27 1022 12,89
2026-05-02 17:02 N/356 12 27 1022 12,89
2026-05-02 17:12 N/355 11 27 1022 12,92
2026-05-02 17:22 N/350 10 27 1021 12,95
2026-05-02 17:32 N/356 11 27 1021 12,95
2026-05-02 17:43 N/352 12 27 1021 12,96
2026-05-02 17:53 N/7 16 27 1021 12,54
2026-05-02 18:03 N/5 13 27 1021 12,73
2026-05-02 18:13 N/15 13 26 1021 12,74
2026-05-02 18:23 NO/54 14 26 1021 12,80
2026-05-02 18:33 NO/66 16 26 1021 12,79
2026-05-02 18:43 NO/65 11 25 1021 12,83
2026-05-02 18:53 O/68 11 25 1021 12,84
2026-05-02 19:03 NO/66 11 25 1020 12,86
2026-05-02 19:13 NO/65 9 25 1020 12,89
2026-05-02 19:23 NO/65 6 24 1020 12,89
2026-05-02 19:33 O/68 6 24 1020 12,92
2026-05-02 19:43 O/72 6 24 1020 12,54
2026-05-02 19:53 O/74 2 23 1020 12,65
2026-05-02 20:03 O/74 2 23 1020 12,70
2026-05-02 20:13 O/74 1 23 1020 12,73
2026-05-02 20:24 O/74 2 22 1020 12,76
2026-05-02 20:34 O/74 2 22 1020 12,76
2026-05-02 20:44 O/74 1 21 1020 12,77
2026-05-02 20:54 O/74 2 21 1020 12,80
2026-05-02 21:04 O/74 2 20 1020 12,83
2026-05-02 21:14 O/74 4 20 1021 12,51
2026-05-02 21:24 O/74 3 19 1021 12,64
2026-05-02 21:34 O/74 1 19 1021 12,67
2026-05-02 21:44 O/74 2 18 1021 12,68
2026-05-02 21:54 O/74 3 18 1021 12,70
2026-05-02 22:04 O/74 3 17 1021 12,73
2026-05-02 22:14 O/74 3 17 1021 12,76
2026-05-02 22:24 O/74 1 17 1020 12,43
2026-05-02 22:34 O/74 3 16 1021 12,58
2026-05-02 22:44 O/74 3 16 1021 12,64
2026-05-02 22:54 O/74 1 15 1021 12,67
2026-05-02 23:04 O/74 2 15 1020 12,70
2026-05-02 23:14 O/74 2 15 1020 12,55
2026-05-02 23:24 O/74 2 14 1020 12,60